Temp
80 79 79 78 77 74 77 77 77 78 78 80 80 78 78 78 78 76 75 76 75 75 76 76 76 76 75 76 76 75 74 73 71 73 75 77 77 79 80 78 79 79 79
80 80 79 80 78 78 75 76 77 77 77 78 81 81 79 78 78 77 76 79 76 75 76 75 76 80 75 75 75 75 75 75 73 71 73 75 77 78 78 78 83 86 82
81 80 80 79 79 79 80 75 78 77 77 78 79 79 79 78 77 77 77 77 77 77 77 76 76 76 75 75 75 74 74 76 73 72 72 74 76 77 78 77 77 78 82
82 80 80 80 80 80 81 80 76 79 77 78 78 78 78 78 78 77 78 77 76 77 78 77 77 77 76 76 76 75 76 75 74 73 72 72 73 79 75 74 75 75 76
82 81 80 81 81 81 81 79 80 79 81 77 78 77 78 79 82 77 78 78 77 76 77 78 79 79 76 76 79 76 75 74 73 73 72 72 72 72 71 73 72 73 77
83 81 82 81 81 81 80 80 79 78 81 81 80 79 78 83 75 73 78 77 79 78 77 77 78 77 77 73 73 73 77 75 73 73 72 71 71 71 73 72 73 71 71
86 83 82 82 80 80 80 80 78 79 79 79 80 80 79 80 71 70 73 82 79 79 80 79 78 85 76 78 73 71 71 70 73 80 75 74 74 74 73 72 72 73 72
84 84 83 82 81 80 80 80 80 80 80 81 80 80 80 80 70 68 71 80 80 79 78 79 80 80 77 77 77 78 77 78 76 75 74 78 78 77 75 79 77 74 74
83 84 83 82 81 80 80 80 81 81 80 81 82 80 80 80 67 67 67 72 78 77 79 80 79 78 73 69 74 73 74 75 75 68 69 70 70 71 73 74 73 71 73
82 83 84 83 82 80 80 81 82 82 82 82 81 82 77 80 68 65 67 79 74 77 76 76 69 75 68 66 76 78 76 78 74 75 74 69 66 71 68 72 76 73 72
82 85 83 84 83 82 82 82 82 81 82 81 80 82 82 79 80 63 61 80 80 79 80 79 80 66 62 61 63 79 78 80 76 73 74 74 75 76 78 71 73 75 70
83 83 84 83 84 84 82 82 82 81 80 80 80 80 82 82 69 64 60 63 74 80 80 82 82 66 62 61 62 65 65 64 71 72 72 71 73 75 79 77 76 75 76
69 82 81 83 84 85 82 81 80 81 80 79 79 79 80 83 83 64 60 59 62 77 83 78 69 63 58 58 59 61 60 66 73 72 73 75 75 77 77 76 77 77 77
69 78 83 82 81 85 83 83 82 81 80 80 79 79 80 82 83 83 72 65 61 65 71 74 65 65 64 68 66 61 62 68 71 73 74 75 75 75 74 75 75 75 73
67 79 83 84 80 83 83 82 82 84 81 81 81 82 81 80 82 77 76 77 75 70 72 76 74 72 74 74 71 72 67 69 71 73 73 73 73 74 74 75 74 72 71
64 72 78 80 78 82 82 74 56 62 60 59 62 76 82 64 63 61 57 58 60 58 68 74 73 74 73 73 73 74 75 71 74 74 74 74 74 73 74 74 74 73 71
62 62 67 67 75 78 78 78 74 66 54 51 52 60 56 64 50 52 52 53 52 58 74 74 75 74 74 75 75 76 75 76 76 74 74 74 74 73 72 73 72 71 71
63 59 65 69 68 71 76 76 77 74 73 70 53 55 50 50 50 48 50 54 60 63 75 74 73 74 74 77 77 75 75 75 75 74 74 74 73 73 72 71 71 71 71
59 63 63 66 67 64 70 75 76 74 75 73 63 56 49 48 49 49 50 72 70 71 73 73 74 74 74 74 75 74 74 75 74 74 75 74 74 73 72 72 71 63 66
58 59 61 63 65 66 67 71 72 71 71 69 69 67 61 60 64 65 66 68 69 70 72 72 72 72 72 73 73 75 74 73 74 74 73 73 73 74 73 72 72 70 69
58 60 63 64 66 64 64 67 69 69 67 67 65 62 59 69 66 64 61 63 63 63 64 61 60 59 58 59 59 62 72 73 73 73 73 72 72 71 71 71 71 70 70
55 56 56 58 61 60 59 61 61 61 61 61 60 58 53 61 59 58 56 54 54 55 55 60 57 54 52 51 52 53 55 56 58 59 64 68 71 71 71 70 70 69 69
52 52 52 52 53 53 54 54 55 57 57 56 54 54 53 52 52 51 52 51 49 49 50 49 48 47 48 48 49 49 49 49 51 55 57 60 64 68 71 70 69 67 67
47 47 49 49 48 47 49 48 48 48 50 48 48 47 47 47 47 47 47 48 46 45 46 47 45 44 45 45 45 46 45 44 50 52 55 59 62 62 67 68 69 69 69
45 44 44 44 44 43 44 45 45 45 44 43 44 44 43 44 44 44 44 44 43 43 43 42 43 42 42 42 42 41 37 36 44 41 57 60 61 59 59 62 63 66 66
46 44 43 42 41 41 41 41 40 41 40 41 41 41 41 41 41 42 42 42 42 42 42 42 42 42 42 41 40 37 35 35 41 39 53 53 52 50 53 56 57 60 61
MSLP
1010.87 1011.60 1012.38 1013.00 1013.61 1014.08 1014.34 1014.70 1014.99 1015.21 1015.63 1016.03 1016.52 1017.02 1017.60 1017.98 1018.27 1018.65 1018.98 1019.26 1019.54 1019.73 1019.82 1019.92 1019.95 1019.90 1020.00 1020.03 1020.02 1020.01 1020.18 1020.32 1020.68 1020.10 1019.63 1019.06 1018.88 1018.76 1018.40 1018.23 1017.94 1017.83 1017.48
1010.03 1010.78 1011.52 1012.28 1013.00 1013.47 1013.96 1014.20 1014.52 1014.87 1015.34 1015.80 1016.18 1016.65 1017.18 1017.58 1017.89 1018.24 1018.61 1018.88 1019.24 1019.47 1019.56 1019.76 1019.70 1019.67 1019.82 1019.93 1020.05 1020.08 1020.11 1019.97 1020.26 1020.33 1019.80 1019.40 1019.00 1018.46 1017.99 1017.94 1017.37 1017.08 1016.96
1008.94 1009.90 1010.70 1011.36 1011.96 1012.44 1013.02 1013.71 1014.10 1014.50 1014.84 1015.50 1015.86 1016.25 1016.65 1017.08 1017.47 1017.75 1018.08 1018.38 1018.67 1018.87 1018.94 1019.23 1019.37 1019.46 1019.68 1019.68 1019.74 1019.88 1019.81 1019.74 1019.79 1019.90 1019.77 1019.30 1018.88 1018.34 1017.99 1017.69 1017.40 1016.80 1016.39
1007.78 1008.77 1009.56 1010.23 1010.89 1011.66 1012.38 1013.11 1013.60 1013.97 1014.42 1014.82 1015.30 1015.68 1015.97 1016.42 1016.88 1017.26 1017.62 1017.90 1018.14 1018.40 1018.54 1018.61 1018.72 1018.90 1019.07 1019.18 1019.33 1019.44 1019.45 1019.56 1019.56 1019.58 1019.47 1019.28 1019.00 1018.09 1018.00 1017.92 1017.53 1016.98 1016.54
1007.22 1007.80 1008.50 1009.33 1010.19 1010.91 1011.66 1012.34 1012.97 1013.44 1013.79 1014.23 1014.65 1015.06 1015.46 1015.87 1016.29 1016.67 1017.04 1017.37 1017.64 1017.90 1018.00 1018.12 1018.20 1018.24 1018.34 1018.51 1018.84 1018.99 1019.14 1019.26 1019.19 1019.20 1019.26 1019.12 1018.79 1018.43 1018.23 1017.84 1017.57 1017.08 1016.41
1006.26 1007.10 1007.92 1008.61 1009.32 1009.87 1010.56 1011.37 1012.17 1012.74 1013.10 1013.61 1014.09 1014.47 1014.86 1015.17 1015.56 1015.95 1016.35 1016.76 1017.02 1017.31 1017.47 1017.48 1017.65 1017.77 1017.84 1017.94 1018.05 1018.16 1018.23 1018.49 1018.58 1018.66 1018.70 1018.80 1018.35 1018.06 1017.84 1017.69 1017.36 1017.11 1016.52
1004.96 1006.26 1007.09 1007.72 1008.35 1009.02 1009.69 1010.48 1011.20 1011.78 1012.41 1012.71 1013.16 1013.68 1014.05 1014.51 1014.86 1015.26 1015.62 1016.00 1016.32 1016.53 1016.74 1016.92 1017.06 1017.13 1017.26 1017.38 1017.41 1017.44 1017.43 1017.39 1017.39 1017.44 1017.74 1017.58 1017.48 1017.29 1017.25 1017.17 1016.98 1016.62 1016.26
1004.30 1005.27 1006.22 1006.90 1007.46 1008.24 1008.88 1009.40 1010.16 1010.86 1011.42 1011.91 1012.35 1012.79 1013.27 1013.68 1014.12 1014.58 1014.99 1015.42 1015.55 1015.67 1015.85 1016.05 1016.30 1016.42 1016.50 1016.72 1016.91 1016.92 1016.74 1016.48 1016.28 1016.43 1016.66 1016.51 1016.45 1016.46 1016.46 1016.25 1016.22 1016.08 1015.60
1003.22 1004.20 1004.94 1005.93 1006.79 1007.43 1008.00 1008.44 1009.12 1009.85 1010.46 1010.90 1011.45 1011.96 1012.37 1012.89 1013.36 1013.83 1014.46 1014.95 1014.99 1014.93 1014.98 1015.20 1015.47 1015.66 1015.71 1016.04 1016.40 1016.57 1016.33 1015.82 1015.25 1015.44 1015.52 1015.56 1015.56 1015.47 1015.56 1015.84 1015.93 1016.01 1015.45
1003.78 1003.38 1004.06 1004.78 1005.69 1006.18 1006.80 1007.46 1008.16 1008.82 1009.32 1010.07 1010.53 1010.92 1011.44 1011.92 1012.42 1012.92 1013.52 1014.02 1014.45 1014.44 1014.51 1014.49 1014.64 1014.76 1015.03 1015.36 1015.76 1015.78 1015.76 1015.11 1015.06 1014.84 1015.09 1015.15 1015.16 1015.00 1014.96 1015.23 1015.21 1015.36 1015.37
1003.35 1002.89 1003.32 1003.68 1004.49 1005.06 1005.97 1006.67 1007.26 1007.94 1008.62 1009.19 1009.67 1010.08 1010.56 1011.05 1011.42 1011.95 1012.44 1012.98 1013.14 1013.46 1013.61 1013.66 1013.74 1013.86 1014.21 1014.50 1014.66 1014.84 1014.61 1014.31 1014.53 1014.72 1014.74 1014.67 1014.41 1014.28 1014.14 1014.13 1014.18 1014.34 1014.43
1002.60 1002.34 1002.54 1002.99 1003.76 1004.32 1004.97 1005.73 1006.41 1007.11 1007.77 1008.32 1008.85 1009.28 1009.63 1010.06 1010.51 1010.94 1011.38 1011.81 1011.88 1012.25 1012.25 1012.27 1012.47 1012.80 1013.08 1013.22 1013.33 1013.54 1013.59 1013.80 1014.20 1014.36 1014.47 1014.30 1014.10 1013.90 1013.54 1013.25 1012.96 1013.13 1013.06
1003.16 1001.76 1001.82 1002.53 1003.04 1003.46 1004.10 1004.74 1005.59 1006.30 1006.89 1007.45 1007.94 1008.32 1008.63 1008.95 1009.35 1009.83 1010.23 1010.68 1010.99 1011.37 1011.20 1011.34 1011.66 1011.88 1012.09 1012.31 1012.42 1012.55 1012.79 1013.41 1013.54 1013.75 1013.60 1013.43 1013.30 1013.14 1012.88 1012.64 1012.27 1012.33 1012.46
1003.32 1002.10 1001.61 1001.94 1002.28 1002.68 1003.28 1003.80 1004.42 1005.12 1005.76 1006.28 1006.87 1007.29 1007.66 1007.97 1008.26 1008.66 1009.53 1010.13 1010.36 1010.92 1010.68 1010.86 1011.06 1011.37 1011.61 1011.66 1011.82 1011.87 1012.12 1012.28 1012.38 1012.38 1012.40 1012.34 1012.38 1012.42 1012.35 1012.15 1012.30 1012.38 1012.74
1003.39 1001.42 1001.04 1001.18 1001.66 1002.06 1002.38 1002.75 1003.33 1003.80 1004.39 1005.11 1005.68 1006.32 1006.65 1006.81 1006.93 1007.34 1007.91 1008.67 1009.07 1009.41 1009.67 1010.24 1010.69 1011.06 1011.15 1011.16 1011.14 1011.10 1011.35 1011.57 1011.61 1011.46 1011.58 1011.71 1011.84 1011.81 1011.77 1011.58 1011.80 1012.19 1012.54
1003.66 1001.86 1000.72 1000.74 1001.18 1001.46 1001.92 1002.76 1003.25 1003.12 1003.58 1004.13 1004.80 1005.28 1005.65 1006.01 1006.28 1006.71 1006.93 1007.16 1007.34 1007.85 1009.38 1009.54 1009.76 1010.06 1010.21 1010.24 1010.30 1010.23 1010.26 1010.33 1010.38 1010.48 1010.71 1010.89 1011.01 1011.14 1011.16 1011.20 1011.35 1011.80 1012.08
1004.40 1003.55 1002.08 1001.23 1001.01 1001.19 1001.63 1002.24 1003.16 1003.93 1004.05 1004.35 1004.52 1004.72 1005.16 1005.46 1005.80 1006.06 1006.14 1006.45 1006.76 1007.95 1008.36 1008.76 1009.00 1009.18 1009.24 1009.28 1009.25 1009.26 1009.20 1009.17 1009.23 1009.40 1009.62 1009.94 1010.14 1010.34 1010.58 1010.82 1011.16 1011.40 1011.60
1004.96 1004.20 1003.30 1002.20 1001.84 1001.70 1001.49 1001.76 1002.24 1003.14 1003.92 1004.56 1004.85 1005.13 1005.17 1005.34 1006.09 1006.36 1006.24 1006.87 1007.93 1007.89 1007.81 1007.94 1007.92 1007.96 1008.01 1008.12 1008.28 1008.24 1008.28 1008.34 1008.50 1008.74 1008.97 1009.16 1009.54 1009.88 1010.12 1010.46 1010.80 1010.89 1010.94
1005.68 1004.79 1003.90 1003.16 1002.55 1001.87 1001.81 1001.53 1001.70 1002.32 1003.02 1003.79 1004.87 1005.62 1006.20 1006.34 1006.63 1006.59 1006.59 1006.63 1007.20 1007.40 1007.19 1007.12 1007.31 1007.40 1007.49 1007.63 1007.40 1007.34 1007.41 1007.75 1008.07 1008.51 1008.68 1008.56 1008.60 1009.03 1009.54 1009.83 1009.95 1010.10 1010.26
1006.11 1005.34 1004.41 1003.54 1003.03 1002.26 1002.05 1001.65 1001.89 1002.12 1002.80 1003.77 1004.29 1005.31 1006.14 1006.49 1007.10 1007.63 1007.66 1007.53 1007.44 1007.64 1007.50 1007.34 1007.57 1007.66 1007.99 1007.53 1007.00 1006.39 1006.94 1007.18 1007.39 1007.85 1008.26 1008.34 1008.14 1008.24 1008.90 1009.14 1009.35 1009.55 1009.71
1006.58 1005.80 1004.84 1004.26 1003.79 1002.99 1003.03 1002.36 1002.51 1002.80 1003.35 1004.31 1005.24 1005.45 1005.78 1006.63 1007.77 1008.08 1008.33 1008.42 1008.39 1008.30 1008.34 1008.42 1008.31 1008.72 1009.07 1009.20 1009.13 1008.96 1007.99 1007.34 1006.84 1007.30 1007.70 1008.03 1008.03 1008.12 1008.40 1008.61 1008.77 1009.06 1009.08
1007.51 1006.83 1006.47 1006.01 1004.98 1004.94 1004.46 1003.98 1004.56 1004.66 1004.69 1005.38 1006.25 1006.70 1006.55 1006.88 1008.60 1009.28 1009.86 1009.92 1010.11 1010.05 1009.64 1009.48 1010.34 1009.16 1009.09 1009.04 1010.10 1011.54 1010.74 1010.57 1010.01 1009.42 1008.80 1008.50 1008.04 1008.19 1008.23 1008.39 1008.30 1008.56 1008.59
1008.30 1008.22 1008.03 1007.33 1007.53 1006.78 1006.50 1006.21 1006.10 1006.42 1006.50 1006.54 1007.31 1008.04 1007.84 1009.06 1009.07 1011.42 1011.45 1011.58 1011.34 1011.08 1011.43 1011.04 1011.05 1011.48 1010.14 1009.14 1009.69 1010.88 1013.72 1013.30 1012.14 1011.48 1010.29 1009.56 1009.17 1008.91 1008.35 1008.17 1008.07 1008.15 1008.14
1009.91 1009.57 1009.45 1009.30 1008.99 1009.08 1008.82 1008.41 1007.97 1008.73 1009.01 1008.38 1008.32 1009.46 1010.47 1009.32 1009.80 1012.68 1012.46 1013.27 1013.10 1012.07 1011.94 1012.75 1011.87 1011.49 1012.02 1010.63 1011.34 1012.65 1013.11 1013.04 1011.89 1011.22 1010.91 1010.54 1009.91 1009.32 1008.76 1008.60 1008.51 1008.24 1008.06
1011.17 1011.04 1011.03 1011.40 1011.08 1010.60 1010.38 1010.11 1010.46 1010.57 1011.49 1009.16 1009.63 1011.84 1011.88 1011.95 1013.60 1013.47 1014.06 1013.83 1013.60 1013.56 1013.45 1013.24 1013.34 1012.33 1013.18 1013.27 1013.60 1013.62 1013.15 1012.69 1012.15 1011.46 1011.25 1010.68 1010.36 1010.13 1009.78 1009.32 1009.06 1008.69 1008.55
1012.10 1012.27 1012.31 1012.32 1012.76 1012.96 1012.82 1012.96 1013.10 1012.36 1012.14 1011.70 1012.02 1012.78 1013.79 1013.25 1013.43 1013.69 1014.66 1014.85 1014.76 1015.60 1015.39 1015.05 1015.30 1014.91 1014.62 1014.67 1014.72 1014.12 1013.57 1013.15 1012.11 1012.22 1011.74 1011.50 1011.27 1011.05 1010.75 1010.27 1009.84 1009.54 1009.30
Wind_Speed
19 17 17 14 8 6 8 8 7 5 7 9 10 8 8 8 7 7 7 6 6 5 5 4 6 5 3 2 1 2 2 2 3 4 3 3 2 3 5 6 6 6 6
20 18 18 16 13 12 8 8 7 8 6 8 10 11 9 8 7 8 8 6 7 7 7 6 6 4 6 4 2 4 3 2 4 4 2 3 3 6 6 6 9 7 7
21 20 18 17 18 16 16 7 9 7 7 7 7 11 11 9 8 7 7 7 7 7 8 7 7 6 6 4 4 4 3 3 3 3 4 2 4 4 5 4 5 6 6
22 21 20 20 18 18 16 15 8 10 8 9 8 9 8 9 8 8 8 7 7 7 7 7 7 7 7 7 5 6 4 4 3 3 3 4 4 5 2 3 4 2 3
21 21 21 19 18 16 17 15 16 11 13 8 9 8 9 8 8 9 9 10 9 7 7 7 8 9 11 9 5 6 6 5 4 4 4 2 3 3 3 3 3 3 5
21 21 19 19 19 18 16 15 15 13 14 14 12 11 10 10 13 15 12 8 11 10 10 8 7 10 12 14 14 12 8 6 6 4 3 4 6 4 3 3 4 3 5
20 20 20 20 19 19 17 16 15 17 12 14 16 14 14 13 14 16 17 11 10 11 12 10 8 9 9 7 11 15 15 15 14 10 9 8 8 6 4 5 6 6 5
18 19 19 19 20 18 18 18 16 15 17 15 13 14 14 12 15 16 16 12 11 12 11 12 12 12 8 8 8 9 10 10 10 8 10 12 9 8 8 11 10 6 5
15 19 19 19 19 18 19 18 16 15 15 16 14 14 15 14 16 17 11 8 11 11 11 12 11 11 12 13 7 8 7 8 8 13 12 13 16 16 11 3 7 4 7
15 16 17 19 19 20 20 19 17 15 15 12 15 15 15 16 15 18 15 10 9 8 8 9 14 12 12 14 12 13 12 14 7 7 5 6 11 11 17 11 9 8 6
11 13 15 18 19 19 17 16 16 15 14 14 15 14 15 15 16 18 19 13 11 10 10 9 10 16 17 15 17 14 15 13 9 6 6 5 5 5 5 6 8 7 4
10 10 14 16 15 14 18 16 16 15 15 15 14 13 11 14 15 16 19 21 16 12 12 11 11 15 19 21 15 18 17 8 4 4 4 5 5 5 7 6 8 8 7
13 12 11 14 16 16 17 16 13 14 13 13 12 12 12 11 12 18 20 21 19 13 12 12 11 12 11 9 15 17 9 7 9 8 9 8 6 6 7 5 4 5 4
15 11 13 13 13 14 13 13 13 13 13 13 13 12 11 11 11 11 10 10 17 12 11 9 7 8 9 6 3 4 5 6 8 8 8 7 4 4 4 4 3 3 2
15 10 13 11 12 12 12 13 13 14 14 13 12 12 12 12 13 13 13 11 12 14 13 9 7 6 8 8 5 5 5 6 7 7 5 5 4 4 4 3 2 3 3
13 7 5 7 8 10 10 5 7 8 15 16 15 13 10 8 12 17 16 19 21 14 6 9 9 9 10 9 9 9 9 10 8 7 7 7 7 6 5 3 3 4 4
10 11 6 5 2 8 8 10 8 3 5 2 12 17 13 12 10 12 15 17 12 15 7 9 9 9 9 9 9 8 8 8 9 7 5 6 5 4 4 3 3 3 4
12 10 7 5 4 4 6 8 8 8 10 4 1 2 6 12 6 6 10 12 4 5 7 8 9 8 8 9 8 6 7 6 7 6 6 6 5 4 3 3 4 5 5
9 7 7 5 4 3 3 6 8 8 9 7 4 4 6 9 6 3 4 2 4 6 5 6 6 6 6 5 6 5 6 6 5 4 5 6 6 5 4 5 6 9 6
9 15 7 6 5 6 4 2 4 3 4 2 5 4 4 3 1 2 3 3 3 2 2 3 4 6 8 7 5 5 5 5 5 5 4 4 4 4 4 5 5 5 5
6 9 12 7 5 8 6 8 6 7 9 7 7 5 11 7 8 7 7 8 7 7 7 7 6 8 9 9 11 13 9 3 2 3 4 4 4 4 4 4 4 5 5
7 9 9 7 8 9 10 10 9 7 10 10 8 13 18 14 9 9 8 7 7 7 8 6 7 10 6 10 10 10 10 12 10 8 7 7 3 3 4 4 4 4 4
9 9 9 10 8 11 11 10 9 9 7 9 10 9 12 12 14 10 8 9 8 9 9 9 8 5 6 11 12 12 6 7 8 8 7 7 6 6 4 4 4 4 4
9 11 9 9 10 9 8 9 12 13 10 10 12 11 9 13 15 10 11 7 6 9 10 9 10 13 9 11 9 7 4 6 6 7 8 5 5 6 5 5 5 4 2
10 10 10 9 9 9 9 11 9 9 8 7 16 8 11 11 9 8 7 7 10 10 11 10 9 14 16 17 13 11 9 14 8 10 5 6 8 10 7 5 7 7 5
12 12 10 10 10 9 9 9 9 10 9 9 9 10 8 10 10 10 9 8 9 8 10 9 10 13 13 11 12 12 8 10 12 13 9 8 8 8 7 8 11 7 8
Wind_Direction
189 187 194 196 196 185 190 196 194 198 148 163 171 165 176 182 184 177 195 210 206 210 230 219 246 246 264 292 16 15 295 173 205 294 249 235 273 248 273 244 253 254 248
187 188 192 194 193 201 201 197 191 197 168 169 177 181 187 186 184 185 196 197 198 212 223 223 242 235 258 248 226 240 242 228 176 249 278 301 298 291 270 282 277 263 246
183 190 189 192 197 200 204 197 199 191 192 177 176 178 180 184 187 191 196 206 207 211 205 209 221 216 233 242 239 240 233 250 213 197 266 255 269 274 290 279 258 259 258
185 186 193 195 194 201 203 204 197 192 187 186 182 191 181 184 186 188 193 205 213 215 220 217 215 209 217 231 237 238 249 268 271 264 268 264 238 283 250 266 300 312 293
187 189 193 193 196 193 200 199 205 200 202 186 187 185 191 188 195 191 190 201 209 221 228 222 227 220 212 213 218 230 222 234 242 249 270 292 281 295 274 285 292 290 295
187 193 192 189 194 198 194 195 198 204 205 205 206 202 201 207 203 194 194 193 205 212 228 235 228 224 230 229 231 225 204 213 224 207 227 239 261 257 261 263 280 297 309
193 192 192 192 192 196 194 196 193 202 203 201 205 205 211 213 206 201 200 207 205 211 217 226 234 239 223 226 236 238 241 235 230 239 245 246 261 250 258 270 267 259 252
190 192 193 193 194 191 192 196 199 195 206 213 206 207 212 214 204 206 204 213 212 212 206 212 219 229 225 216 232 243 243 244 238 229 231 250 250 251 232 255 260 257 273
185 191 190 191 191 189 195 196 197 198 201 209 213 210 212 219 204 206 184 202 219 220 218 218 216 222 220 213 212 236 251 255 253 242 234 227 234 241 245 260 260 260 279
225 188 187 187 189 191 193 194 196 202 204 202 212 214 212 217 205 203 191 210 216 224 223 224 216 216 206 217 229 242 252 253 241 253 256 254 245 250 248 231 248 251 260
206 191 184 185 190 190 189 193 194 199 203 209 213 217 218 213 216 201 196 210 217 217 226 226 228 220 227 225 217 233 237 250 245 234 249 250 252 251 253 208 214 212 211
264 190 190 187 190 185 186 188 195 195 201 207 212 218 221 222 215 207 202 205 211 214 223 226 227 207 218 228 227 233 240 229 223 228 231 243 250 256 261 243 225 212 214
323 225 187 187 191 187 186 185 190 195 201 207 211 214 219 218 219 211 203 207 218 212 226 226 213 202 206 223 234 237 223 213 228 233 241 245 231 237 245 254 264 236 228
312 253 199 190 184 189 185 187 188 196 202 206 210 215 216 220 218 212 209 210 226 222 237 227 188 183 203 202 204 201 203 205 203 216 223 229 225 226 230 225 228 205 189
315 234 198 193 188 190 185 187 195 205 201 203 209 213 214 218 220 207 196 200 209 213 213 225 219 217 236 237 231 213 196 202 208 213 203 213 228 231 236 223 178 144 193
329 332 209 182 181 190 193 170 34 225 197 199 201 208 219 245 219 210 210 200 203 183 189 207 216 222 228 230 229 228 212 204 206 206 210 215 220 217 212 188 159 194 232
339 332 319 14 206 190 194 205 203 46 65 86 224 212 212 206 205 215 222 213 191 146 200 210 212 211 222 224 222 217 216 206 195 196 200 213 209 196 178 185 201 201 240
338 329 340 3 356 346 212 201 203 193 200 182 92 339 170 141 155 158 146 116 114 241 200 195 206 208 213 217 220 202 193 191 198 206 203 201 195 191 169 190 203 211 221
335 332 342 329 333 10 307 225 202 182 191 170 106 66 74 98 111 119 356 72 151 192 209 218 207 218 230 217 203 195 185 199 197 191 217 195 183 172 196 201 206 217 213
327 318 305 329 320 32 355 42 216 139 108 75 136 171 128 101 141 335 308 299 290 241 264 293 354 5 350 316 250 204 199 188 184 190 203 193 175 164 194 199 211 228 211
328 351 358 4 349 43 22 51 43 90 89 69 78 77 179 117 87 80 48 45 39 36 42 74 92 70 41 30 15 4 318 264 196 185 185 204 198 198 206 204 206 223 228
12 21 13 17 24 27 45 49 60 56 68 79 50 53 68 74 66 58 47 44 40 29 32 41 27 46 98 76 48 21 21 346 355 359 2 354 302 241 218 226 224 236 237
33 32 23 28 27 28 45 49 44 43 55 69 65 52 63 56 66 36 29 24 31 45 38 50 67 60 48 57 55 57 350 328 328 321 346 350 344 352 310 259 230 227 212
43 44 31 38 32 37 41 48 53 40 25 46 59 65 47 71 60 43 33 20 25 47 49 37 49 57 38 45 59 68 16 340 330 336 335 315 329 338 344 348 344 345 319
44 51 52 44 46 39 41 50 59 77 54 45 53 46 58 77 83 86 69 46 40 41 53 50 31 48 46 43 43 31 11 356 7 345 322 347 11 15 2 351 355 340 321
61 53 55 63 64 58 61 67 59 59 59 57 55 59 45 63 63 60 66 64 65 53 54 48 50 59 64 50 35 24 16 6 27 10 25 28 34 26 5 7 8 358 349